Weather Roundup
Issued by NWS Corpus Christi, TX

Home | Current Version | Previous Version | Text Only | Print | Product List | Glossary On
Versions: 1 2 3 4 5 6 7 8 9 10 11 12 13 14 15 16 17 18 19 20 21 22 23 24 25 26 27 28 29 30 31 32 33 34 35 36 37 38 39 40 41 42 43 44 45 46 47 48 49 50
000
ASUS44 KCRP 240610
HRRCRP

SOUTH TEXAS REGIONAL WEATHER ROUNDUP
NATIONAL WEATHER SERVICE CORPUS CHRISTI TX
100 AM CDT SUN JUL 24 2016


TXZ229>244-240700-
...CORPUS CHRISTI AREA OBSERVATIONS...

CITY           SKY/WX    TMP DP  RH WIND       PRES   REMARKS
CORPUS CHRISTI PTCLDY    83  77  82 SE12      29.93S HX  92
NAS CORPUS CHR CLEAR     84  78  82 S17G23    29.93S HX  95
ROCKPORT       PTCLDY    85  76  74 SE12G21   29.93F HX  94
KINGSVILLE NAS PTCLDY    82  79  90 SE13      29.93S HX  92
ALICE          PTCLDY    81  75  82 SE10      29.93R
FALFURRIAS     PTCLDY    82  75  78 SE8       29.93S
$$

...VICTORIA AREA OBSERVATIONS...

CITY           SKY/WX    TMP DP  RH WIND       PRES   REMARKS
VICTORIA       CLEAR     79  76  90 S7        29.95S
BEEVILLE       FAIR      79  78  98 SE3       29.94S
PLEASANTON     CLEAR     82  73  73 SE8       29.95R
SAN ANTONIO    PTCLDY    82  72  71 SE14      29.98R
$$

...LAREDO AREA OBSERVATIONS...

CITY           SKY/WX    TMP DP  RH WIND       PRES   REMARKS
LAREDO         CLEAR     87  71  58 SE17      29.91R HX  93
COTULLA        CLEAR     86  70  58 SE13      29.92R HX  90
DEL RIO        CLEAR     90  62  39 E10       29.88R HX  90
MCALLEN        PTCLDY    83  76  79 SE12      29.93S HX  91
HEBBRONVILLE   CLEAR     82  72  70 SE12      29.95R
$$

...OTHER TEXAS OBSERVATIONS...

CITY           SKY/WX    TMP DP  RH WIND       PRES   REMARKS
BROWNSVILLE    CLEAR     83  77  82 S10       29.93F HX  92
HOUSTON        PTCLDY    83  75  77 S3        29.95S HX  90
COL. STATION   CLEAR     84  75  74 S9        29.95S HX  92
AUSTIN         CLEAR     83  73  72 S7        29.96R
WACO           CLEAR     87  68  52 SE7       29.93S HX  90
FORT WORTH     PTCLDY    87  71  58 S8        29.91S HX  93
WICHITA FALLS  CLEAR     85  67  54 S13       29.90S
LUBBOCK        CLEAR     81  58  45 SE13      30.01R
EL PASO        PTCLDY    88  43  20 CALM      29.94R
$$

...MARINE OBSERVATIONS...

STATION/POSITION TIME  SKY/WX   TEMP    WIND        PRES    VSBY  WAVE   SWELL
                                AIR SEA DIR/SP/G                  HT/PER HT/PER
                 (UTC)          (F)     (DEG/KT/KT) (MB)    (MI)  (FT/S) (FT/S)
PORT ARANSAS     0600            85 89  140/ 19/ 21 1013.7S
BUOY 90 E PORT A 0550            86 87  150/ 14/ 17 1014.0F         2/ 3
BUOY 45 SE BAFFI 0550            85 84  170/ 16/ 17 1013.3F         3/ 4
BUOY 200 E PT IS 0550            86 86  160/  8/ 10 1015.0S         1/ 4
BUOY 15 E GALVES 0550            86 89  180/ 12/ 14 1014.0F         1/ 3
$$




USA.gov is the U.S. government's official web portal to all federal, state and local government web resources and services.